Wind_Speed
7 6 3 3 2 5 4 4 4 4 5 5 5 4 4 6 5 5 4 2 1 3 5 8 9 6 3 1 4 5 6 6 6 6 7 6 7 7 6 7 10 9 10
9 7 8 6 4 5 6 5 5 6 6 6 6 5 4 5 6 6 4 2 1 2 5 8 9 6 2 2 4 6 7 8 8 7 7 7 7 7 7 8 10 9 10
9 11 12 10 7 5 6 7 6 7 6 7 7 6 4 5 5 6 5 2 1 2 3 8 8 4 1 2 5 7 9 9 8 7 6 7 7 7 7 7 8 8 9
5 8 8 8 9 10 8 9 8 8 8 8 7 7 6 6 6 6 5 3 2 3 4 7 7 2 1 3 5 7 9 8 7 6 6 6 6 6 6 6 7 7 7
11 11 12 9 8 10 11 10 10 9 9 9 6 5 6 7 7 8 6 5 4 3 4 6 7 2 2 4 5 5 7 6 5 5 5 4 4 5 4 5 6 6 6
12 14 13 12 12 9 11 13 12 11 11 10 9 8 8 8 8 10 8 7 6 4 4 6 5 1 2 4 4 5 5 5 4 3 3 3 3 3 4 4 5 6 7
13 15 14 14 13 8 4 9 12 13 12 12 12 12 11 9 12 12 10 9 8 6 5 6 6 2 4 4 3 4 4 4 4 3 1 1 1 2 3 4 5 6 7
18 17 16 18 19 17 13 10 9 11 13 14 13 13 13 12 14 14 13 11 10 8 7 6 6 5 5 5 4 4 4 4 3 2 2 2 2 3 3 4 5 6 7
21 19 15 16 18 21 20 15 14 15 14 15 15 15 16 16 17 18 16 14 12 10 9 8 7 7 6 6 6 6 5 5 4 3 3 4 4 5 5 6 6 7 8
22 21 20 22 17 17 19 21 17 17 19 18 16 15 18 20 19 21 19 16 14 13 12 11 8 7 7 7 6 5 5 5 5 5 5 5 5 5 6 6 6 6 6
26 24 21 19 20 17 18 17 16 17 18 20 20 19 20 22 23 24 21 19 17 16 15 13 11 9 8 7 7 6 6 6 6 7 7 7 7 6 6 7 7 6 7
29 26 25 24 22 17 16 15 17 18 20 22 23 23 23 22 25 25 25 20 19 18 18 16 14 12 10 9 8 8 7 7 7 7 8 8 8 7 8 8 8 7 8
33 31 27 24 22 22 20 16 14 17 16 21 25 26 25 23 26 26 28 27 22 21 20 20 16 13 12 11 10 9 8 8 8 9 9 9 8 8 9 9 9 9 9
36 34 32 30 25 23 21 20 18 18 19 22 25 27 27 26 27 27 26 28 25 23 23 21 18 16 14 13 12 11 9 9 10 9 10 9 9 9 10 10 10 9 10
38 36 33 33 29 27 23 23 20 21 21 25 27 27 26 27 29 30 28 28 28 27 26 24 21 19 16 15 13 12 12 11 11 11 11 10 10 10 11 11 11 11 11
43 39 37 37 33 30 27 25 24 25 23 24 17 21 26 30 31 32 31 30 30 30 29 27 25 22 19 18 15 14 14 12 12 12 12 12 11 11 12 13 12 13 13
50 45 42 40 38 37 33 28 25 23 21 25 23 25 20 24 34 36 36 35 33 32 30 31 30 27 24 19 17 15 15 14 13 13 13 13 12 10 11 13 14 13 14
53 53 46 44 42 41 39 33 29 29 29 30 29 27 30 27 28 35 38 37 38 35 34 35 33 30 25 20 19 18 16 16 15 15 14 14 13 13 14 14 14 14 16
52 55 52 48 44 44 40 42 38 32 30 33 34 35 31 34 35 36 38 35 46 41 38 39 36 32 27 23 21 20 19 18 17 17 16 16 16 16 17 17 17 17 18
48 51 54 50 46 43 43 39 38 39 35 30 30 31 38 38 37 41 40 40 46 47 43 39 39 34 29 26 25 23 21 20 19 18 18 19 19 19 19 20 19 19 20
44 44 50 50 46 45 42 43 38 39 40 39 39 41 41 43 42 41 43 44 48 58 43 38 40 38 29 31 28 25 24 23 21 20 21 20 21 20 20 22 20 22 23
41 44 41 48 43 41 42 41 44 38 42 46 45 44 42 45 45 47 46 40 46 42 45 42 38 36 33 33 31 29 28 26 23 23 23 23 22 22 22 22 22 22 27
35 37 37 41 41 39 37 36 40 37 45 44 46 45 44 42 46 38 44 44 28 38 46 43 38 35 32 34 32 32 31 29 26 27 27 26 28 24 24 25 28 30 34
26 25 27 31 35 34 36 35 33 36 37 37 33 32 31 29 31 28 41 43 42 25 29 35 46 32 35 36 36 34 32 31 31 33 31 31 32 29 29 31 32 35 36
23 26 27 29 31 33 35 32 33 33 34 33 30 27 24 25 31 34 33 30 39 48 34 22 24 30 35 31 38 35 34 35 36 35 41 40 37 36 38 36 38 42 43
22 27 28 32 30 32 36 40 37 32 33 32 28 29 34 30 25 35 36 33 32 33 35 27 31 34 35 35 34 36 37 38 38 43 40 40 43 42 40 42 43 41 45
Wind_Direction
282 272 223 311 345 2 305 293 299 298 293 292 284 277 259 237 224 206 192 191 11 3 10 357 350 349 360 68 110 114 114 114 111 109 107 101 98 85 77 74 75 55 60
267 228 258 261 277 298 301 300 290 290 292 286 291 278 264 236 213 196 189 200 356 3 358 352 350 0 19 119 129 124 122 117 112 107 104 95 87 81 70 63 66 57 49
228 242 248 254 252 265 289 287 280 277 276 280 280 276 247 229 214 191 194 194 280 321 358 350 354 15 65 137 132 128 122 116 112 102 96 90 84 86 77 69 61 55 50
234 231 228 241 262 266 267 265 263 266 263 263 261 261 243 222 197 201 202 211 251 306 342 349 348 12 130 136 134 128 122 119 114 106 99 101 101 85 73 67 58 45 37
254 254 267 268 259 265 263 254 254 256 255 255 245 250 242 212 195 216 218 225 239 268 316 336 341 338 153 148 139 137 130 124 116 112 110 103 93 83 69 53 48 40 29
245 246 252 258 265 258 255 253 246 248 252 250 238 227 242 216 211 224 224 229 239 254 292 320 329 303 187 170 160 155 146 138 129 119 110 97 70 54 33 32 29 23 22
222 226 224 233 249 250 250 253 259 261 253 253 246 226 228 220 223 231 228 229 233 243 269 300 307 218 211 204 199 177 175 166 155 151 154 105 39 14 17 11 3 4 6
213 223 223 229 236 255 259 260 271 272 267 260 253 239 226 225 221 228 230 233 238 241 258 273 287 253 211 224 214 205 204 209 214 211 241 296 321 329 335 340 351 357 357
218 226 224 233 231 237 255 273 272 271 276 269 260 250 226 222 222 230 231 233 240 243 247 257 272 264 238 235 236 222 216 225 238 251 271 291 300 309 315 329 340 346 346
217 222 235 230 233 239 245 259 268 271 273 270 262 252 241 229 223 228 233 235 238 244 249 252 255 257 254 250 251 252 252 251 258 266 272 281 285 290 300 312 325 330 336
227 225 226 237 237 238 246 255 263 256 256 266 261 253 236 233 229 221 229 231 237 244 246 251 252 248 246 248 250 250 253 262 270 276 279 279 284 290 299 304 311 317 322
233 227 229 232 236 234 241 249 260 253 255 259 257 248 240 237 232 231 226 228 232 241 245 247 254 251 247 241 242 246 256 263 269 274 276 274 277 289 293 299 303 309 313
239 236 231 229 231 234 233 238 248 255 254 256 255 249 236 234 238 235 234 234 232 237 243 247 248 252 253 250 247 248 253 265 268 273 273 276 282 287 292 298 303 307 310
239 239 234 234 233 235 243 235 243 248 249 259 238 245 243 231 232 234 235 235 237 237 238 242 246 247 250 252 254 257 257 260 266 267 270 276 280 283 287 293 292 297 301
237 239 236 232 228 233 235 243 247 249 254 247 247 238 246 243 235 235 238 233 235 237 233 235 239 245 245 248 252 259 265 267 268 269 272 272 275 279 284 285 287 291 290
240 237 238 238 233 231 232 235 243 248 252 254 250 250 243 244 240 240 236 234 233 236 232 229 234 236 239 246 249 256 263 268 270 270 272 276 278 283 286 285 290 292 295
238 238 236 238 239 238 240 236 234 240 244 247 251 260 253 257 247 244 245 236 234 237 229 228 230 231 233 237 248 253 262 265 265 266 268 272 277 282 279 278 281 287 291
232 238 235 235 237 238 243 245 250 252 254 256 261 260 264 263 259 253 250 249 235 236 224 227 229 232 233 232 241 249 257 263 264 264 264 269 275 280 275 274 281 287 291
235 232 237 235 235 239 240 246 251 255 260 262 261 268 267 264 260 251 264 268 241 232 226 224 227 230 231 234 238 247 252 260 264 265 267 270 273 277 279 283 287 290 291
242 233 232 234 233 233 237 241 241 249 255 260 266 270 271 264 262 262 259 257 235 250 234 215 224 227 229 236 239 246 254 262 263 267 270 272 276 279 278 277 282 287 292
246 238 230 229 230 232 234 241 246 249 254 261 268 273 275 264 266 262 262 258 237 245 239 216 220 224 229 236 242 247 254 260 262 265 267 271 274 279 284 281 279 286 298
251 240 232 228 223 227 232 235 245 249 257 264 266 270 272 266 260 269 261 249 245 249 237 214 219 223 226 236 242 248 254 257 261 264 267 269 271 275 280 274 281 288 301
252 245 229 226 222 225 231 239 247 256 262 265 269 271 272 268 265 248 241 241 247 244 244 236 211 214 227 238 243 250 256 261 264 263 264 265 266 275 283 275 280 287 295
245 234 223 218 216 222 228 234 243 257 261 267 262 258 264 263 256 245 242 243 246 244 241 237 217 210 233 237 245 251 258 263 263 264 266 268 267 271 279 282 280 278 291
223 206 201 201 209 216 220 230 241 246 254 264 259 240 246 259 249 244 245 243 252 239 253 215 213 223 230 236 244 250 256 261 261 267 270 266 270 276 281 284 278 290 286
226 197 200 205 206 214 225 234 244 251 264 260 254 250 249 253 255 248 238 241 250 244 241 219 228 233 234 240 245 252 256 263 269 266 265 269 278 275 275 290 287 281 289
Height
3153 3154 3154 3155 3156 3156 3157 3156 3157 3157 3158 3159 3161 3161 3163 3163 3165 3167 3168 3168 3169 3170 3170 3169 3169 3168 3167 3168 3168 3167 3168 3169 3170 3170 3171 3171 3171 3171 3171 3170 3170 3170 3170
3152 3153 3154 3154 3154 3156 3157 3157 3157 3157 3158 3159 3160 3161 3162 3163 3164 3166 3168 3169 3169 3171 3170 3170 3169 3168 3168 3168 3168 3168 3169 3169 3170 3171 3172 3172 3172 3172 3172 3172 3172 3172 3172
3150 3151 3152 3153 3153 3154 3156 3156 3156 3157 3158 3159 3160 3161 3161 3163 3164 3166 3168 3169 3169 3170 3171 3170 3169 3168 3168 3169 3169 3169 3170 3171 3172 3172 3173 3173 3173 3173 3173 3173 3173 3173 3172
3149 3150 3151 3152 3153 3153 3154 3156 3155 3156 3158 3158 3159 3160 3161 3162 3164 3166 3168 3169 3169 3170 3171 3171 3170 3169 3169 3170 3171 3171 3171 3172 3173 3173 3174 3174 3174 3174 3174 3174 3174 3174 3173
3148 3149 3150 3150 3151 3152 3153 3154 3155 3155 3157 3157 3158 3160 3161 3163 3165 3165 3167 3168 3169 3170 3171 3171 3171 3170 3170 3170 3171 3172 3173 3173 3174 3174 3175 3175 3175 3175 3175 3175 3175 3174 3173
3145 3148 3149 3150 3150 3150 3152 3153 3154 3155 3156 3157 3158 3160 3161 3162 3164 3165 3166 3168 3169 3170 3171 3171 3171 3171 3170 3171 3172 3173 3173 3174 3174 3175 3175 3176 3176 3176 3177 3176 3176 3175 3174
3141 3143 3144 3147 3149 3150 3150 3151 3153 3155 3155 3156 3157 3159 3160 3162 3164 3165 3166 3167 3167 3169 3170 3171 3171 3171 3171 3171 3172 3173 3174 3174 3174 3175 3176 3176 3176 3176 3176 3176 3176 3175 3174
3137 3139 3141 3143 3145 3147 3149 3150 3151 3153 3155 3156 3157 3158 3159 3161 3162 3163 3165 3166 3167 3168 3169 3170 3170 3171 3171 3172 3172 3173 3174 3175 3175 3175 3176 3176 3176 3176 3176 3175 3175 3174 3174
3133 3136 3137 3139 3141 3142 3145 3147 3150 3151 3153 3154 3155 3157 3158 3159 3161 3161 3163 3165 3166 3167 3168 3168 3169 3171 3171 3172 3173 3173 3174 3174 3175 3175 3176 3176 3176 3176 3176 3175 3175 3175 3174
3129 3132 3133 3135 3137 3139 3141 3144 3146 3148 3150 3152 3153 3155 3156 3157 3158 3159 3161 3163 3165 3166 3167 3167 3168 3169 3171 3171 3172 3173 3173 3174 3174 3174 3175 3175 3175 3175 3175 3174 3174 3173 3172
3126 3128 3129 3132 3133 3136 3138 3140 3142 3145 3147 3148 3150 3151 3152 3154 3156 3158 3159 3161 3163 3165 3165 3166 3167 3168 3169 3170 3171 3171 3172 3173 3173 3174 3174 3174 3174 3174 3174 3173 3173 3172 3171
3120 3122 3125 3127 3129 3132 3135 3136 3137 3140 3143 3145 3147 3148 3149 3151 3153 3155 3157 3158 3160 3163 3164 3165 3166 3167 3168 3169 3170 3170 3170 3171 3171 3171 3172 3172 3172 3172 3172 3172 3171 3171 3170
3114 3117 3119 3122 3125 3126 3128 3131 3133 3136 3138 3141 3143 3145 3146 3147 3149 3152 3154 3156 3157 3160 3162 3163 3164 3165 3166 3167 3168 3169 3169 3169 3170 3170 3170 3170 3171 3171 3170 3170 3170 3169 3168
3108 3111 3113 3116 3120 3122 3124 3126 3129 3132 3133 3137 3138 3141 3143 3144 3146 3148 3151 3154 3156 3157 3159 3161 3162 3163 3164 3165 3166 3167 3167 3167 3168 3168 3168 3168 3168 3169 3168 3168 3167 3166 3166
3101 3106 3110 3110 3113 3117 3119 3122 3125 3127 3130 3131 3133 3137 3139 3142 3143 3145 3148 3150 3153 3155 3156 3158 3160 3161 3161 3163 3164 3164 3165 3166 3166 3166 3166 3166 3166 3166 3166 3166 3165 3164 3163
3094 3099 3103 3106 3108 3110 3114 3116 3120 3123 3125 3128 3129 3131 3135 3138 3139 3141 3143 3146 3148 3151 3153 3154 3156 3158 3159 3160 3161 3161 3161 3163 3163 3163 3163 3163 3164 3164 3164 3163 3163 3163 3162
3086 3090 3094 3098 3102 3105 3109 3111 3114 3117 3121 3123 3126 3128 3130 3133 3135 3137 3139 3141 3144 3145 3148 3150 3152 3153 3155 3156 3158 3158 3158 3159 3160 3160 3160 3161 3161 3161 3161 3160 3160 3159 3159
3075 3079 3085 3089 3094 3099 3104 3107 3109 3111 3114 3118 3121 3124 3126 3128 3131 3132 3133 3137 3139 3140 3140 3144 3147 3150 3152 3152 3154 3154 3155 3156 3156 3157 3157 3158 3158 3158 3157 3157 3157 3156 3156
3066 3071 3074 3080 3086 3090 3094 3099 3102 3104 3107 3111 3114 3117 3120 3124 3125 3126 3128 3130 3134 3131 3130 3138 3142 3145 3148 3149 3150 3151 3151 3152 3153 3153 3154 3154 3154 3154 3154 3154 3153 3153 3152
3052 3060 3066 3071 3076 3082 3087 3089 3093 3097 3101 3105 3106 3110 3112 3115 3118 3119 3121 3123 3127 3124 3121 3127 3137 3141 3142 3145 3145 3146 3147 3148 3149 3150 3150 3150 3150 3150 3150 3149 3149 3149 3148
3041 3047 3054 3061 3069 3074 3079 3084 3087 3090 3094 3096 3099 3102 3103 3106 3108 3110 3112 3115 3120 3119 3115 3121 3129 3134 3138 3140 3140 3142 3142 3144 3145 3145 3145 3146 3145 3145 3145 3145 3145 3145 3143
3032 3036 3043 3052 3060 3067 3073 3078 3080 3084 3087 3090 3092 3092 3095 3097 3099 3101 3102 3108 3110 3111 3111 3114 3122 3129 3131 3133 3135 3136 3137 3139 3140 3140 3140 3140 3140 3140 3140 3140 3139 3138 3138
3022 3028 3035 3044 3053 3060 3067 3072 3074 3077 3080 3082 3084 3085 3086 3086 3088 3090 3094 3101 3102 3104 3108 3109 3109 3120 3125 3128 3130 3131 3131 3131 3135 3134 3134 3134 3134 3134 3134 3134 3133 3132 3130
3016 3022 3030 3037 3045 3054 3060 3064 3068 3071 3072 3074 3075 3077 3077 3079 3081 3083 3087 3093 3096 3098 3098 3101 3103 3112 3118 3123 3124 3125 3125 3126 3127 3128 3129 3128 3128 3128 3127 3127 3126 3125 3122
3013 3017 3025 3033 3040 3047 3053 3057 3060 3062 3065 3066 3067 3070 3072 3075 3076 3079 3081 3085 3090 3091 3097 3098 3104 3109 3114 3118 3119 3119 3119 3120 3120 3120 3121 3121 3121 3120 3121 3120 3118 3117 3115
3011 3015 3022 3029 3035 3042 3047 3050 3052 3056 3060 3061 3062 3064 3068 3071 3072 3074 3078 3079 3082 3085 3090 3094 3100 3105 3109 3111 3111 3111 3112 3113 3114 3114 3112 3112 3111 3113 3111 3110 3109 3108 3106